Ontario, CA

4:05 AM PST on January 18, 2018 (GMT -0800)
Ontario International

Weather History for KONT - October, 2012

Change the Weather History Date:

Tuesday, October 23, 2012

  Actual Average Record
Temperature  
Mean Temperature 64 °F 66 °F  
Max Temperature 71 °F 79 °F 104 °F (2017)
Min Temperature 57 °F 53 °F 50 °F (2004)
Degree Days  
Heating Degree Days 1 2  
Month to date heating degree days 8 23  
Since 1 July heating degree days 8 26  
Cooling Degree Days 0 3  
Month to date cooling degree days 175 111  
Year to date cooling degree days 2097 1662  
Growing Degree Days 12 (Base 50)    
Moisture  
Dew Point 48 °F    
Average Humidity 58    
Maximum Humidity 80    
Minimum Humidity 35    
Precipitation  
Precipitation 0.00 in 0.02 in 0.25 in (2016)
Month to date precipitation 0.17 0.38  
Year to date precipitation 5.71 11.25  
Since 1 July precipitation 0.22  
Snow  
Snow 0.00 in - - ()
Month to date snowfall 0.0  
Year to date snowfall 0.0  
Snow Depth 0.00 in    
Sea Level Pressure  
Sea Level Pressure 29.95 in    
Wind  
Wind Speed 6 mph (WSW)    
Max Wind Speed 15 mph    
Max Gust Speed 31 mph    
Visibility 10 miles    
Events      
T = Trace of Precipitation, MM = Missing Value Source: NWS Daily Summary

Daily Weather History Graph

Daily Weather History Graph

Search for Another Location

Airport or City:

Trip Planner

Search our weather history database for the weather conditions in past years. The results will help you decide how hot, cold, wet, or windy it might be!

Date:

Astronomy

Oct. 23, 2012 Rise Set
Actual Time 7:02 AM PDT 6:06 PM PDT
Civil Twilight 6:37 AM PDT 6:31 PM PDT
Nautical Twilight 6:07 AM PDT 7:00 PM PDT
Astronomical Twilight 5:38 AM PDT 7:29 PM PDT
Moon 2:38 PM PDT (10/23) 1:15 AM PDT (10/23)
Length of Visible Light 11h 54m
Length of Day
11h 03m
Waxing Gibbous, 67% of the Moon is Illuminated
Oct 23
Waxing Gibbous
Oct 29
Full
Nov 6
Last Quarter
Nov 13
New
Nov 20
First Quarter

Hourly Weather History & Observations

Time (PDT) Temp. Dew Point Humidity Pressure Visibility Wind Dir Wind Speed Gust Speed Precip Events Conditions
12:28 AM 60.8 °F 51.8 °F 72% 29.98 in 10.0 mi WSW 5.8 mph - N/A   Overcast
12:53 AM 60.1 °F 52.0 °F 75% 29.95 in 10.0 mi WSW 9.2 mph - N/A   Overcast
1:11 AM 59.0 °F 51.8 °F 77% 29.97 in 10.0 mi WSW 4.6 mph - N/A   Overcast
1:53 AM 59.0 °F 51.1 °F 75% 29.95 in 10.0 mi West 8.1 mph - N/A   Mostly Cloudy
3:53 AM 59.0 °F 52.0 °F 78% 29.93 in 10.0 mi Calm Calm - N/A   Mostly Cloudy
4:53 AM 57.9 °F 52.0 °F 81% 29.93 in 10.0 mi Calm Calm - N/A   Mostly Cloudy
5:53 AM 57.2 °F 51.8 °F 82% 29.96 in 10.0 mi Calm Calm - N/A   Mostly Cloudy
6:08 AM 57.2 °F 51.8 °F 82% 29.97 in 10.0 mi Calm Calm - N/A   Mostly Cloudy
6:24 AM 57.2 °F 51.8 °F 82% 29.97 in 10.0 mi SSW 3.5 mph - N/A   Mostly Cloudy
6:53 AM 57.9 °F 52.0 °F 81% 29.96 in 10.0 mi SW 3.5 mph - N/A   Mostly Cloudy
7:07 AM 57.2 °F 51.8 °F 82% 29.97 in 10.0 mi SW 3.5 mph - N/A   Scattered Clouds
7:44 AM 57.2 °F 51.8 °F 82% 29.97 in 9.0 mi Calm Calm - N/A   Mostly Cloudy
7:53 AM 57.2 °F 51.8 °F 82% 29.97 in 10.0 mi Calm Calm - N/A   Mostly Cloudy
8:53 AM 59.0 °F 52.0 °F 78% 29.98 in 10.0 mi SSW 3.5 mph - N/A   Mostly Cloudy
9:53 AM 61.0 °F 51.1 °F 70% 29.98 in 10.0 mi SSW 4.6 mph - N/A   Mostly Cloudy
10:41 AM 62.6 °F 48.2 °F 59% 29.99 in 10.0 mi West 5.8 mph - N/A   Scattered Clouds
10:53 AM 62.1 °F 48.0 °F 60% 29.97 in 10.0 mi West 3.5 mph - N/A   Scattered Clouds
11:53 AM 66.9 °F 46.0 °F 47% 29.96 in 10.0 mi South 4.6 mph - N/A   Scattered Clouds
12:53 PM 68.0 °F 44.1 °F 42% 29.94 in 10.0 mi WSW 6.9 mph - N/A   Scattered Clouds
1:53 PM 70.0 °F 42.1 °F 36% 29.91 in 10.0 mi SW 8.1 mph - N/A   Scattered Clouds
2:53 PM 70.0 °F 41.0 °F 35% 29.91 in 10.0 mi SW 11.5 mph 17.3 mph N/A   Scattered Clouds
3:53 PM 69.1 °F 41.0 °F 36% 29.90 in 10.0 mi SSW 13.8 mph - N/A   Scattered Clouds
4:53 PM 68.0 °F 39.9 °F 36% 29.91 in 10.0 mi WSW 11.5 mph 17.3 mph N/A   Scattered Clouds
5:53 PM 64.9 °F 41.0 °F 42% 29.91 in 10.0 mi SW 11.5 mph - N/A   Scattered Clouds
6:53 PM 63.0 °F 42.1 °F 46% 29.93 in 10.0 mi West 9.2 mph - N/A   Clear
7:53 PM 61.0 °F 44.1 °F 54% 29.94 in 10.0 mi West 8.1 mph - N/A   Clear
8:53 PM 60.1 °F 45.0 °F 57% 29.94 in 10.0 mi WSW 5.8 mph - N/A   Partly Cloudy
9:53 PM 57.9 °F 48.9 °F 72% 29.95 in 10.0 mi WSW 5.8 mph - N/A   Partly Cloudy
10:53 PM 55.9 °F 48.9 °F 77% 29.96 in 10.0 mi West 4.6 mph - N/A   Scattered Clouds
11:53 PM 57.0 °F 48.9 °F 74% 29.96 in 10.0 mi Calm Calm - N/A   Mostly Cloudy